When you browse on this site, cookies collect data to enhance your experience and personalize the content and advertising you see.
Visit our Privacy Policy to learn more. By continuing to use the site, you agree to this use of cookies and data.
  • In Hungary
  • List of Countries
  • For 7 days
  • Water Temperature
  • Satellite Maps
  • Weather Map
  • News
  • Weather Widgets
  • user-avatar
    Login

    Hourly Weather Asylguzhino

    Today, 17 January, Thursday

    Time Temperature Precipitation Wind Pressure Humidity
    00:00 -3°C° 0 mm 4 mps 733 mmHg 62%
    01:00 -4°C° 0 mm 5 mps 733 mmHg 57%
    02:00 -4°C° 0 mm 5 mps 732 mmHg 57%
    03:00 -4°C° 0 mm 5 mps 732 mmHg 56%
    04:00 -4°C° 0 mm 4 mps 732 mmHg 58%
    05:00 -5°C° 0 mm 4 mps 732 mmHg 60%
    06:00 -7°C° 0 mm 4 mps 731 mmHg 62%
    07:00 -7°C° 0 mm 3 mps 731 mmHg 65%
    08:00 -7°C° 0 mm 3 mps 731 mmHg 66%
    09:00 -7°C° 0 mm 3 mps 730 mmHg 68%
    10:00 -7°C° 0 mm 3 mps 730 mmHg 69%
    11:00 -7°C° 0.2 mm 3 mps 730 mmHg 75%
    12:00 -7°C° 0.2 mm 2 mps 729 mmHg 82%
    13:00 -7°C° 0.2 mm 2 mps 729 mmHg 89%
    14:00 -7°C° 0.3 mm 2 mps 729 mmHg 90%
    15:00 -7°C° 0.3 mm 2 mps 729 mmHg 91%
    16:00 -6°C° 0 mm 1 mps 729 mmHg 94%
    17:00 -7°C° 0.1 mm 2 mps 729 mmHg 93%
    18:00 -8°C° 0.1 mm 2 mps 730 mmHg 92%
    19:00 -9°C° 0.1 mm 3 mps 730 mmHg 92%
    20:00 -9°C° 0 mm 2 mps 730 mmHg 93%
    21:00 -10°C° 0 mm 2 mps 730 mmHg 94%
    22:00 -10°C° 0 mm 2 mps 731 mmHg 96%
    23:00 -10°C° 0 mm 2 mps 731 mmHg 96%

    Tomorrow, 18 January, Friday

    Time Temperature Precipitation Wind Pressure Humidity
    00:00 -12°C° 0 mm 2 mps 732 mmHg 96%
    01:00 -12°C° 0 mm 2 mps 732 mmHg 96%
    02:00 -12°C° 0 mm 2 mps 732 mmHg 96%
    03:00 -13°C° 0 mm 2 mps 732 mmHg 95%
    04:00 -14°C° 0 mm 2 mps 732 mmHg 95%
    05:00 -12°C° 0 mm 1 mps 732 mmHg 94%
    06:00 -12°C° 0 mm 1 mps 732 mmHg 92%
    07:00 -12°C° 0 mm 1 mps 733 mmHg 90%
    08:00 -13°C° 0 mm 2 mps 732 mmHg 87%
    09:00 -12°C° 0 mm 2 mps 732 mmHg 84%
    10:00 -12°C° 0 mm 2 mps 732 mmHg 80%
    11:00 -9°C° 0 mm 2 mps 732 mmHg 77%
    12:00 -8°C° 0 mm 3 mps 732 mmHg 73%
    13:00 -6°C° 0 mm 3 mps 731 mmHg 70%
    14:00 -7°C° 0 mm 3 mps 731 mmHg 72%
    15:00 -7°C° 0 mm 3 mps 731 mmHg 74%
    16:00 -9°C° 0 mm 4 mps 730 mmHg 75%
    17:00 -9°C° 0 mm 4 mps 730 mmHg 76%
    18:00 -9°C° 0 mm 4 mps 731 mmHg 76%
    19:00 -11°C° 0 mm 5 mps 731 mmHg 76%
    20:00 -11°C° 0 mm 5 mps 731 mmHg 80%
    21:00 -11°C° 0 mm 5 mps 731 mmHg 84%
    22:00 -12°C° 0 mm 5 mps 731 mmHg 88%
    23:00 -11°C° 0 mm 4 mps 732 mmHg 89%

    Day after tomorrow, 19 January, Saturday

    Time Temperature Precipitation Wind Pressure Humidity
    00:00 -11°C° 0 mm 4 mps 732 mmHg 90%
    01:00 -10°C° 0 mm 3 mps 732 mmHg 92%
    02:00 -12°C° 0 mm 3 mps 732 mmHg 92%
    03:00 -12°C° 0 mm 3 mps 732 mmHg 93%
    04:00 -10°C° 0 mm 2 mps 733 mmHg 93%
    05:00 -10°C° 0 mm 2 mps 733 mmHg 94%
    06:00 -12°C° 0 mm 2 mps 732 mmHg 94%
    07:00 -12°C° 0 mm 2 mps 732 mmHg 95%
    08:00 -9°C° 0 mm 1 mps 733 mmHg 93%
    09:00 -8°C° 0 mm 1 mps 733 mmHg 92%
    10:00 -8°C° 0 mm 1 mps 733 mmHg 91%
    11:00 -6°C° 0 mm 1 mps 732 mmHg 88%
    12:00 -4°C° 0 mm 1 mps 732 mmHg 86%
    13:00 -3°C° 0 mm 1 mps 732 mmHg 84%
    14:00 -5°C° 0 mm 2 mps 731 mmHg 87%
    15:00 -6°C° 0 mm 2 mps 731 mmHg 89%
    16:00 -7°C° 0 mm 2 mps 731 mmHg 92%
    17:00 -7°C° 0 mm 2 mps 731 mmHg 92%
    18:00 -7°C° 0 mm 2 mps 731 mmHg 91%
    19:00 -9°C° 0 mm 3 mps 731 mmHg 91%
    20:00 -9°C° 0 mm 3 mps 731 mmHg 92%
    21:00 -8°C° 0 mm 2 mps 730 mmHg 93%
    22:00 -8°C° 0 mm 2 mps 730 mmHg 93%
    23:00 -8°C° 0 mm 2 mps 730 mmHg 93%

    20 January, Sunday

    Time Temperature Precipitation Wind Pressure Humidity
    00:00 -8°C° 0 mm 2 mps 730 mmHg 93%
    01:00 -8°C° 0 mm 2 mps 730 mmHg 93%
    02:00 -8°C° 0 mm 2 mps 730 mmHg 93%
    03:00 -7°C° 0 mm 1 mps 729 mmHg 92%
    04:00 -7°C° 0 mm 1 mps 729 mmHg 92%
    05:00 -6°C° 0.2 mm 1 mps 729 mmHg 93%
    06:00 -6°C° 0.2 mm 1 mps 728 mmHg 93%
    07:00 -4°C° 0.2 mm 1 mps 728 mmHg 94%
    08:00 -3°C° 0.3 mm 1 mps 728 mmHg 94%
    09:00 -3°C° 0.3 mm 1 mps 727 mmHg 94%
    10:00 -2°C° 0.3 mm 1 mps 727 mmHg 94%
    11:00 -4°C° 0.3 mm 2 mps 727 mmHg 93%
    12:00 -4°C° 0.3 mm 3 mps 726 mmHg 92%
    13:00 -4°C° 0.3 mm 3 mps 726 mmHg 92%
    14:00 -5°C° 0.3 mm 4 mps 726 mmHg 92%
    15:00 -5°C° 0.3 mm 4 mps 727 mmHg 92%
    16:00 -5°C° 0.3 mm 4 mps 727 mmHg 92%
    17:00 -8°C° 0.2 mm 4 mps 727 mmHg 92%
    18:00 -10°C° 0.2 mm 5 mps 728 mmHg 92%
    19:00 -12°C° 0.2 mm 5 mps 729 mmHg 92%
    20:00 -14°C° 0 mm 4 mps 730 mmHg 93%
    21:00 -15°C° 0 mm 4 mps 730 mmHg 94%
    22:00 -16°C° 0 mm 3 mps 731 mmHg 96%
    23:00 -18°C° 0 mm 4 mps 732 mmHg 95%

    21 January, Monday

    Time Temperature Precipitation Wind Pressure Humidity
    00:00 -18°C° 0 mm 4 mps 732 mmHg 95%
    01:00 -19°C° 0 mm 4 mps 733 mmHg 94%
    02:00 -19°C° 0 mm 4 mps 733 mmHg 94%
    03:00 -19°C° 0 mm 4 mps 734 mmHg 93%
    04:00 -19°C° 0 mm 4 mps 734 mmHg 93%
    05:00 -19°C° 0 mm 4 mps 734 mmHg 93%
    06:00 -18°C° 0 mm 4 mps 735 mmHg 92%
    07:00 -18°C° 0 mm 4 mps 735 mmHg 92%
    08:00 -17°C° 0 mm 4 mps 735 mmHg 89%
    09:00 -17°C° 0 mm 4 mps 735 mmHg 87%
    10:00 -17°C° 0 mm 5 mps 735 mmHg 84%
    11:00 -14°C° 0 mm 5 mps 735 mmHg 81%
    12:00 -14°C° 0 mm 6 mps 735 mmHg 78%
    13:00 -12°C° 0 mm 6 mps 735 mmHg 75%
    14:00 -12°C° 0 mm 6 mps 735 mmHg 77%
    15:00 -13°C° 0 mm 5 mps 735 mmHg 79%
    16:00 -13°C° 0 mm 5 mps 735 mmHg 81%
    17:00 -14°C° 0 mm 5 mps 735 mmHg 83%
    18:00 -14°C° 0 mm 5 mps 735 mmHg 85%
    19:00 -15°C° 0 mm 5 mps 736 mmHg 87%
    20:00 -15°C° 0 mm 5 mps 736 mmHg 88%
    21:00 -16°C° 0 mm 4 mps 736 mmHg 88%
    22:00 -16°C° 0 mm 4 mps 736 mmHg 88%
    23:00 -16°C° 0 mm 4 mps 736 mmHg 87%

    22 January, Tuesday

    Time Temperature Precipitation Wind Pressure Humidity
    00:00 -16°C° 0 mm 3 mps 736 mmHg 87%
    01:00 -16°C° 0 mm 3 mps 736 mmHg 86%
    02:00 -16°C° 0 mm 3 mps 735 mmHg 85%
    03:00 -16°C° 0 mm 3 mps 735 mmHg 84%
    04:00 -15°C° 0 mm 3 mps 735 mmHg 83%
    05:00 -14°C° 0 mm 2 mps 735 mmHg 82%
    06:00 -14°C° 0 mm 2 mps 734 mmHg 81%
    07:00 -13°C° 0 mm 2 mps 734 mmHg 80%
    08:00 -12°C° 0 mm 2 mps 733 mmHg 78%
    09:00 -12°C° 0 mm 2 mps 733 mmHg 77%
    10:00 -10°C° 0 mm 2 mps 732 mmHg 76%
    11:00 -9°C° 0.1 mm 2 mps 731 mmHg 78%
    12:00 -10°C° 0.1 mm 3 mps 730 mmHg 80%
    13:00 -9°C° 0.1 mm 3 mps 729 mmHg 83%
    14:00 -10°C° 0 mm 3 mps 729 mmHg 84%
    15:00 -9°C° 0 mm 2 mps 728 mmHg 84%
    16:00 -9°C° 0 mm 2 mps 727 mmHg 85%
    17:00 -9°C° 0 mm 2 mps 726 mmHg 86%
    18:00 -9°C° 0 mm 2 mps 726 mmHg 86%
    19:00 -9°C° 0 mm 2 mps 725 mmHg 87%
    20:00 -9°C° 0 mm 3 mps 724 mmHg 86%
    21:00 -8°C° 0 mm 3 mps 724 mmHg 84%
    22:00 -7°C° 0 mm 3 mps 723 mmHg 83%
    23:00 -9°C° 0.1 mm 4 mps 724 mmHg 82%
    Show more